User: anonymous   Login
Location: Unspecified
(0.0000°N, 0.0000°E)
Time: 04:24:38
(UTC+00:00)
Language:

USA 207 - Orbit

View from above orbital plane
View from above orbital plane
View from above satellite
View from above satellite

Ground track
Ground track

The orbit data is extracted from the following two-line orbital elements,

1 35815U 09047A   14350.63632467 0.00000000  00000-0  00000-0 0    05
2 35815   0.0928   1.9305 0004337 356.5570   3.4403  1.00270000    03
Epoch (UTC): 16 December 2014 15:16:18
Eccentricity: 0.0004337
inclination: 0.0928°
perigee height: 35768 km
apogee height: 35805 km
right ascension of ascending node: 1.9305°
argument of perigee: 356.5570°
revolutions per day: 1.00270000
mean anomaly at epoch: 3.4403°
orbit number at epoch: 0

The dashed part of the orbit path shows where the satellite is in the earth's shadow,  

DLR